Location: Poughquag
(41.6090°N, 73.6820°W)
Time: 11:52:19
(UTC-04:00)

Tiros 1 - Pass Details

Date: 05 June 2020
Orbit: 630 x 664 km, 48.4° (Epoch: 06 July)

Event Time Altitude Azimuth Distance (km) Brightness Sun altitude
Rises 17:30:52 0° 295° (WNW) 2,951 11.6 29.9°
Reaches altitude 10° 17:33:18 10° 288° (WNW) 2,033 11.2 29.5°
Maximum altitude 17:37:41 42° 219° (SW) 912 8.7 28.7°
Drops below altitude 10° 17:42:02 10° 148° (SSE) 2,006 9.4 27.9°
Sets 17:44:26 0° 142° (SE) 2,907 10.1 27.4°
